Flag for Germany Weather past 2 weeks in Eberswalde, Brandenburg, Germany

Now
55 °F

Clear.


Feels Like: 55 °F
Forecast: 46 / 66 °F
Wind: 3 mph from South

Location: Berlin-Tegel

Current Time: Apr 26, 2015 at 11:00:43 PM

Latest Report: Apr 26, 2015 at 10:20 PM


Visibility: 10 mi

Pressure: 29.68 "Hg

Humidity: 77%

Dew point: 48 °F

Location of EberswaldeLocation

Historic Weather in Eberswalde — Graph

°F

Eberswalde temperature yesterday

Maximum temperature yesterday: 73 °F (at 1:50 PM)
Minimum temperature yesterday: 50 °F (at 4:20 AM)
Average temperature yesterday: 61 °F

Past Weeks' High & Low Weather Summary

 TemperatureHumidityPressure
High73 °F (Apr 15, 3:50 PM)100% (Apr 18, 6:50 AM)30.42 "Hg (Apr 18, 6:50 AM)
Low34 °F (Apr 14, 4:50 AM)18% (Apr 21, 2:20 PM)29.68 "Hg (Apr 26, 4:50 PM)
Average52 °F57%30.09 "Hg
* Reported Apr 11 9:20 PM — Apr 26 9:50 PM, Eberswalde, Weather by CustomWeather, © 2015

Note: Actual official high and low records may vary slightly from our data, if they occured in-between our weather recording intervals... More about our weather records

Advertising

Eberswalde weather history for previous 24 hours

 ConditionsComfort  
Time TempWeatherWind HumidityBarometerVisibility
9:50 PM
Sun, Apr 26
57 °FPassing clouds.5 mph77%29.68 "HgN/A
9:20 PM55 °FScattered clouds.2 mph77%29.68 "HgN/A
8:50 PM57 °FScattered clouds.3 mph72%29.68 "HgN/A
8:20 PM57 °FBroken clouds.3 mph72%29.68 "HgN/A
7:50 PM59 °FPartly sunny.6 mph68%29.68 "HgN/A
7:20 PM59 °FScattered clouds.6 mph68%29.68 "HgN/A
6:50 PM61 °FScattered clouds.5 mph68%29.68 "HgN/A
6:20 PM61 °FScattered clouds.10 mph72%29.68 "HgN/A
5:50 PM63 °FSprinkles. Broken clouds.8 mph64%29.68 "HgN/A
5:20 PM63 °FScattered clouds.2 mph73%29.68 "HgN/A
4:50 PM63 °FBroken clouds.2 mph73%29.68 "HgN/A
4:20 PM63 °FScattered clouds.2 mph68%29.71 "HgN/A
3:50 PM59 °FLots of rain. Broken clouds.6 mph77%29.71 "HgN/A
3:20 PM63 °FSprinkles. Broken clouds.9 mph64%29.71 "HgN/A
2:50 PM64 °FBroken clouds.14 mph52%29.71 "HgN/A
2:20 PM66 °FBroken clouds.14 mph52%29.71 "HgN/A
1:50 PM64 °FSprinkles. Broken clouds.13 mph52%29.71 "HgN/A
1:20 PM64 °FBroken clouds.12 mph52%29.71 "HgN/A
12:50 PM64 °FBroken clouds.8 mph56%29.74 "HgN/A
12:20 PM63 °FPartly sunny.8 mph59%29.74 "HgN/A
11:50 AM63 °FPartly sunny.6 mph56%29.74 "HgN/A
11:20 AM63 °FPartly sunny.7 mph59%29.74 "HgN/A
10:50 AM61 °FScattered clouds.7 mph63%29.77 "HgN/A
10:20 AM59 °FScattered clouds.6 mph68%29.77 "Hg6 mi
9:50 AM59 °FScattered clouds.5 mph77%29.77 "Hg6 mi
9:20 AM55 °FPartly sunny.3 mph88%29.77 "Hg5 mi
8:50 AM55 °FPartly sunny.5 mph88%29.77 "Hg4 mi
8:20 AM54 °FBroken clouds.7 mph94%29.77 "Hg4 mi
7:50 AM54 °FPartly sunny.5 mph94%29.77 "Hg4 mi
7:20 AM52 °FPartly sunny.6 mph94%29.77 "Hg4 mi
6:50 AM52 °FClear.6 mph94%29.77 "Hg4 mi
6:20 AM50 °FFog.7 mph94%29.77 "Hg4 mi
5:50 AM52 °FFog.5 mph94%29.74 "Hg4 mi
5:20 AM52 °FPassing clouds.7 mph94%29.74 "HgN/A
4:50 AM52 °FPassing clouds.7 mph94%29.74 "HgN/A
4:20 AM54 °FPassing clouds.8 mph94%29.74 "HgN/A
3:50 AM52 °FPassing clouds.6 mph94%29.77 "HgN/A
3:20 AM52 °FPassing clouds.6 mph94%29.74 "HgN/A
2:50 AM54 °FPartly cloudy.5 mph94%29.74 "HgN/A
2:20 AM54 °FLight rain. Passing clouds.5 mph94%29.74 "HgN/A
1:50 AM54 °FLight rain. Partly cloudy.9 mph88%29.74 "HgN/A
1:20 AM55 °FLight rain. Passing clouds.6 mph82%29.74 "HgN/A
12:50 AM55 °FLight rain. Passing clouds.8 mph82%29.74 "HgN/A
12:20 AM55 °FLight rain. Passing clouds.7 mph82%29.74 "HgN/A
11:20 PM
Sat, Apr 25
57 °FPassing clouds.8 mph72%29.74 "HgN/A
Weather by CustomWeather, © 2015

See weather overviewHow to use our weather pages